Zurück zum Katalog

STARLINK-36177

AktivKommunikationVLEO
NORAD 66932·PAYLOAD·🇺🇸 United States

Gestartet Dec 7, 2025 von Vandenberg Space Force Base

Loading…

Nächste Überflüge (nächste 24 Stunden)

TLE

AktuellSource: CelesTrak SupGP

Epoche: Sep 14, 2026, 21:04 UTC

1 66932C 25286H   26257.87826389  .00017164  00000+0  50696-3 0  2576
2 66932  53.1575 195.9618 0001305  97.5870 311.3416 15.34390972    11

Verfolge STARLINK-36177 in Echtzeit mit AllMySat

Download on the App Store